User: anonymous
Location: *
(40.4270°N, 9.4940°E)
Time: 17:42:53
(UTC+02:00)
Language:

ATLAS 5 CENTAUR R/B - Orbit

View from above orbital plane
View from above orbital plane
View from above satellite
View from above satellite

Ground track
Ground track

The orbit data is extracted from the following two-line orbital elements,

1 31702U 07027B   14231.12140740 0.00000100  00000-0  43221-4 0    09
2 31702  63.3790 350.3116 0153000 349.8994  10.1006 14.18148329    06
Epoch (UTC): 19 August 2014 02:54:49
Eccentricity: 0.0153000
inclination: 63.3790°
perigee height: 721 km
apogee height: 942 km
right ascension of ascending node: 350.3116°
argument of perigee: 349.8994°
revolutions per day: 14.18148329
mean anomaly at epoch: 10.1006°
orbit number at epoch: 0

The dashed part of the orbit path shows where the satellite is in the earth's shadow,  

DLR